Location: Borz?cin
(51.1714°N, 19.6030°E)
Time: 08:16:42
(UTC+00:00)

Cosmos 1727 Rocket - Pass Details

Date: 19 May 2025
Orbit: 960 x 996 km, 82.9° (Epoch: 17 June)

Event Time Altitude Azimuth Distance (km) Brightness Sun altitude
Exits shadow 22:34:10 31° 165° (SSE) 1,652 4.6 -18.8°
Maximum altitude 22:37:15 65° 94° (E) 1,069 4.1 -18.8°
Drops below altitude 10° 22:43:23 10° 15° (NNE) 2,719 7.5 -18.8°
Sets 22:45:54 0° 12° (NNE) 3,666 8.6 -18.8°
